• Join FlightAware (Why Join?)
  • Login
  • US Flag GB Flag 
21:05 EST


 

Airport Tracker/Info


-or-


 

Live Flight TrackerFlight Track Log ✈ N493TM ✈ 27-Jul-2013 ✈ CYYZ - KHPN

Flight Track Log - Related Links

Times and Time Zones

All times are in EDT time to prevent confusion due to time zone crossing. See the N493TM flight status page for this flight to view local times or setup timezone preferences in your user account.

Time Position Orientation Groundspeed Altitude Reporting Facility
EDT Latitude Longitude Course Direction KTS MPH feet Rate Location/Type
15:08 43.6500 -79.6833 122° Southeast 190 219 3,200  Level Toronto Center
15:09 43.6000 -79.7333 216° Southwest 210 242 5,800 3,000 Climbing Toronto Center
15:10 43.5667 -79.6333 115° Southeast 250 288 9,200 3,060 Climbing Toronto Center
15:11 43.5167 -79.5667 136° Southeast 270 311 12,000 2,400 Climbing Toronto Center
15:12 43.5000 -79.4333 100° East 320 368 14,100 1,680 Climbing Toronto Center
15:13 43.5000 -79.3167 90° East 360 414 15,400 1,500 Climbing Toronto Center
15:14 43.3792 -78.8904 122° Southeast  Level Estimated
15:14 43.5000 -79.1500 90° East 380 437 17,200  Level Toronto Center
15:15 43.4667 -79.0333 111° Southeast 370 426 19,200 1,920 Climbing Toronto Center
15:16 43.4167 -78.9000 117° Southeast 370 426 21,100 1,560 Climbing Toronto Center
15:17 43.3667 -78.7833 120° Southeast 360 414 22,400 1,140 Climbing Toronto Center
15:18 43.3167 -78.6667 120° Southeast 360 414 23,400 1,020 Climbing Toronto Center
15:19 43.2500 -78.5500 128° Southeast 370 426 24,500 960 Climbing Toronto Center
15:20 43.1833 -78.4500 132° Southeast 370 426 25,400 900 Climbing Toronto Center
15:21 43.1167 -78.3333 128° Southeast 370 426 26,400 1,020 Climbing Toronto Center
15:22 43.0667 -78.2000 117° Southeast 370 426 27,500 960 Climbing Toronto Center
15:23 43.0333 -78.0833 111° Southeast 380 437 28,400 900 Climbing Toronto Center
15:24 43.0000 -77.9167 105° East 390 449 29,300 780 Climbing Toronto Center
15:25 42.9667 -77.7833 109° East 400 460 30,000 660 Climbing Toronto Center
15:26 42.9167 -77.6333 114° Southeast 400 460 30,700 480 Climbing Toronto Center
15:27 42.9000 -77.5000 100° East 400 460 31,000 120 Climbing Toronto Center
15:28 42.8333 -77.3667 124° Southeast 420 483 31,000  Level Toronto Center
15:29 42.8000 -77.2000 105° East 430 495 31,000  Level Toronto Center
15:30 42.7667 -77.0500 107° East 430 495 31,000  Level Toronto Center
15:31 42.7333 -76.8833 105° East 430 495 31,000  Level Toronto Center
15:33 42.6919 -76.7458 112° Southeast 429 494 31,000 -120 Level Boston Center
15:34 42.6478 -76.5872 111° Southeast 429 494 30,800 -420 Descending Boston Center
15:35 42.6053 -76.4322 110° East 436 502 30,200 -900 Descending Boston Center
15:36 42.5628 -76.2772 110° East 436 502 29,100 -1,140 Descending Boston Center
15:37 42.5139 -76.1133 112° Southeast 436 502 28,000 -1,140 Descending Boston Center
15:38 42.4708 -75.9617 111° Southeast 436 502 26,900 -1,080 Descending Boston Center
15:39 42.4272 -75.8186 112° Southeast 429 494 25,900 -960 Descending Boston Center
15:40 42.3836 -75.6672 111° Southeast 423 487 25,000 -1,080 Descending Boston Center
15:41 42.3439 -75.5244 111° Southeast 418 481 23,800 -1,440 Descending Boston Center
15:42 42.3019 -75.3794 111° Southeast 418 481 22,200 -1,440 Descending Boston Center
15:43 42.2678 -75.2486 109° East 418 481 21,000 -1,320 Descending Boston Center
15:44 42.2211 -75.1092 114° Southeast 391 450 19,600 -1,380 Descending Boston Center
15:45 42.1883 -74.9928 111° Southeast 371 427 18,300 -840 Descending Boston Center
15:46 42.1428 -74.8761 118° Southeast 361 415 18,000 -360 Descending Boston Center
15:47 42.0972 -74.7708 120° Southeast 344 396 17,600 -720 Descending Boston Center
15:48 42.0475 -74.6517 119° Southeast 344 396 16,600 -1,200 Descending Boston Center
15:49 41.9956 -74.5297 120° Southeast 344 396 15,300 -1,260 Descending Boston Center
15:50 41.9417 -74.3939 118° Southeast 339 390 13,900 -1,200 Descending Boston Center
15:51 41.8994 -74.2978 121° Southeast 339 390 12,700 -1,200 Descending Boston Center
15:52 41.8453 -74.1792 121° Southeast 339 390 11,500 -900 Descending Boston Center
15:53 41.7897 -74.1303 147° Southeast 307 353 11,000 -540 Descending Boston Center
15:54 41.6986 -74.0833 159° South 299 344 10,500 -1,020 Descending Boston Center
15:55 41.6261 -74.0481 160° South 287 330 9,000 -1,440 Descending Boston Center
15:56 41.5167 -73.9833 156° South 270 311 6,900 -1,320 Descending New York TRACON
15:57 41.4500 -73.9667 169° South 242 278 5,600 -1,260 Descending New York TRACON
15:58 41.3833 -73.9333 159° South 224 258 4,400 -1,140 Descending New York TRACON
15:59 41.3333 -73.9000 153° Southeast 243 280 3,400 -720 Descending New York TRACON
16:00 41.2667 -73.8667 159° South 229 264 3,000 -240 Descending New York TRACON
16:01 41.2167 -73.8167 143° Southeast 223 257 3,000 -300 Level New York TRACON
16:02 41.1667 -73.7833 153° Southeast 198 228 2,500 -780 Descending New York TRACON
16:03 41.1167 -73.7500 153° Southeast 180 207 1,500 -900 Descending New York TRACON
16:04 41.0833 -73.7167 143° Southeast 125 144 800 -720 Descending New York TRACON
16:06 41.0669 -73.7076 246° West  Level Estimated
16:13 41.0667 -73.7000 246° West  Level FlightAware Approximate
16:14 41.0669 -73.7076 246° West  Level Estimated